Wetbulb
64.87 57.86 55.21 59.33 61.59 60.97 58.41 55.46 54.67 59.44 61.67 59.97 57.99 59.50 60.76 62.99 63.27 62.58 63.82 64.38 65.12 67.03 69.02 70.28 70.39 71.73 72.19 72.76 71.91 71.59 71.49 71.09 70.58 70.57 70.11 69.67 66.91 69.23 69.49 69.86 70.74 70.86 71.16 71.61
60.51 57.37 60.43 62.66 62.68 60.77 58.67 56.09 57.21 59.77 62.57 60.52 59.57 58.60 61.69 61.87 62.14 63.09 63.29 63.75 64.61 65.67 68.60 68.77 69.28 70.72 71.31 71.34 71.38 71.53 70.94 70.89 70.97 70.97 70.82 70.56 70.32 70.20 70.00 69.68 69.99 70.66 71.11 69.89
56.64 59.19 63.02 61.48 58.68 57.82 57.92 56.54 57.01 56.77 61.17 61.98 57.20 55.68 58.39 62.16 63.82 63.78 64.60 64.74 63.89 65.13 65.53 68.34 69.49 69.64 70.21 70.49 70.85 71.27 71.11 71.10 71.27 71.22 70.76 70.40 70.54 70.16 68.66 68.64 69.12 69.57 70.07 69.87
58.78 62.50 59.70 57.63 57.42 57.82 54.79 61.72 61.02 60.61 55.91 52.13 58.88 48.81 57.45 60.44 60.61 62.66 61.86 63.84 63.34 64.41 67.30 68.87 68.54 68.93 69.97 69.90 71.22 71.42 71.46 71.17 71.26 71.42 70.33 69.22 68.21 67.54 67.43 69.50 69.40 69.04 69.77 70.38
56.56 58.16 56.36 55.67 56.23 59.57 57.33 61.75 59.32 59.32 54.06 52.53 55.04 51.73 55.30 60.30 58.04 59.40 62.26 63.64 64.88 66.61 68.06 67.97 68.76 69.03 70.94 70.96 70.40 71.54 71.57 71.57 71.56 72.01 71.17 70.00 68.83 69.34 69.64 69.69 70.79 70.36 70.28 70.73
58.75 61.30 60.97 60.10 61.13 61.68 63.11 59.91 58.28 57.27 52.86 46.60 51.62 50.31 51.84 53.07 57.57 60.50 63.40 64.94 64.86 63.98 65.76 69.46 69.69 70.03 69.90 71.12 71.29 71.75 71.64 71.27 71.80 72.01 71.97 70.84 69.33 69.06 69.05 69.33 70.14 70.59 71.64 71.93
56.38 57.03 58.94 59.69 57.55 59.77 59.25 53.16 46.83 45.53 47.52 45.26 50.81 50.08 51.35 57.97 59.74 61.80 61.98 62.76 65.04 64.45 66.66 67.83 68.10 68.60 69.37 69.85 70.67 71.69 71.68 71.42 71.66 71.62 71.26 71.01 70.36 69.84 68.98 69.22 69.53 70.34 69.20 68.94
50.22 48.57 55.58 59.21 56.26 55.99 57.50 53.18 48.29 44.61 44.90 46.91 51.87 48.39 53.41 59.62 61.48 62.00 62.56 63.63 65.42 64.18 67.54 67.74 68.16 68.83 68.40 69.57 70.67 71.27 70.65 71.23 71.38 71.45 71.10 70.77 70.89 70.70 69.94 69.91 70.14 69.80 71.10 71.45
48.81 49.41 56.83 57.57 57.82 55.78 54.31 50.66 56.82 50.76 50.96 46.13 50.37 53.75 57.58 60.11 60.24 61.24 61.90 62.40 64.34 64.58 67.86 67.59 68.72 69.37 68.79 69.33 70.48 71.56 71.51 71.33 71.01 70.22 70.83 70.68 70.95 70.84 70.60 70.39 71.12 71.57 72.36 73.47
52.52 47.25 54.02 57.06 58.64 57.83 54.28 55.98 49.74 48.84 42.37 43.29 47.97 49.78 50.94 55.01 57.62 60.68 61.18 63.24 64.63 65.40 68.27 68.95 68.81 69.15 68.87 70.17 70.12 71.22 71.56 71.02 70.36 70.07 70.49 70.58 70.49 70.44 70.41 71.66 70.58 71.05 71.88 72.50
53.07 49.88 49.99 54.15 53.06 51.22 52.86 51.31 51.52 50.99 47.00 43.24 45.39 47.91 57.80 57.24 59.83 60.84 62.13 63.35 64.83 66.70 68.09 68.64 69.30 70.25 70.04 70.83 70.80 70.69 70.51 71.14 70.34 69.92 70.28 70.25 70.21 70.87 71.81 70.91 71.04 71.00 71.60 72.66
52.56 48.03 45.56 47.45 53.31 57.57 56.10 54.12 51.42 47.67 46.60 49.89 47.23 49.14 60.55 59.58 60.41 61.74 61.56 62.55 64.74 66.08 68.04 68.78 69.83 70.10 69.99 70.78 71.22 70.86 71.21 70.63 70.03 69.46 69.68 69.55 70.57 70.81 70.84 69.75 70.13 72.95 72.81 73.79
50.38 48.54 42.91 44.19 47.21 54.03 51.88 53.57 51.03 49.99 49.71 48.69 46.72 49.29 60.55 59.68 60.57 62.20 61.05 63.76 65.38 67.31 67.86 68.95 69.03 69.09 69.35 69.80 71.28 71.36 71.56 70.95 70.50 69.16 69.11 69.37 69.32 67.83 68.91 71.05 71.44 72.75 72.90 72.48
55.63 44.93 43.49 42.23 44.68 47.86 46.55 50.77 51.57 48.79 43.74 49.34 48.88 51.46 56.21 56.98 59.72 61.05 62.72 64.63 66.12 67.28 67.69 67.94 68.68 68.80 69.52 69.95 70.08 70.72 71.11 71.42 70.18 69.05 68.70 67.76 67.62 66.71 68.80 70.72 72.64 73.22 72.68 71.59
48.07 42.65 47.76 46.12 49.15 48.83 48.29 48.70 50.16 49.65 50.01 48.41 51.52 52.04 55.31 56.81 59.85 61.38 62.08 64.13 65.70 66.46 67.09 67.34 68.28 68.40 68.93 69.37 69.91 70.69 71.04 71.17 69.97 68.72 68.25 67.67 66.76 66.83 69.64 72.17 73.15 72.25 72.09 70.85
49.07 44.27 49.07 44.58 49.17 49.44 47.99 49.10 49.25 52.02 53.60 53.54 54.84 53.41 59.83 60.83 62.24 62.01 63.71 62.56 64.88 65.64 67.17 67.92 68.57 68.90 69.06 70.15 70.34 70.66 70.88 70.48 69.85 68.74 68.48 69.16 68.79 72.72 72.84 72.52 72.22 71.35 70.87 69.32
47.73 45.71 43.76 39.90 47.28 47.46 44.64 47.66 48.53 48.72 50.12 56.27 51.59 54.75 60.58 58.83 60.76 61.37 62.82 59.61 64.24 65.08 66.44 67.44 68.77 69.67 70.35 71.05 71.38 70.48 70.86 70.98 69.74 69.71 69.42 70.19 71.41 73.33 72.25 71.85 70.66 69.71 69.05 68.24
48.54 46.37 45.40 42.18 44.40 38.54 46.94 51.29 51.69 50.16 51.00 50.38 58.57 58.68 60.12 60.06 61.28 62.25 64.49 61.92 63.12 66.24 66.36 68.84 69.71 70.15 71.54 72.23 72.28 72.07 71.45 70.97 71.13 71.21 71.07 72.98 73.61 72.15 71.51 71.34 70.32 69.58 68.73 68.09
50.23 48.02 44.79 42.37 42.17 45.46 49.52 51.34 51.02 48.53 48.81 52.38 56.99 59.15 60.47 61.55 62.33 61.68 64.82 66.07 65.73 67.01 68.10 69.90 70.70 71.47 71.88 72.01 72.56 72.46 71.70 71.90 72.65 72.75 73.44 73.98 73.19 72.42 71.57 71.38 69.69 68.84 67.58 67.37
49.55 48.66 46.24 44.49 41.96 40.94 49.01 54.45 56.83 55.27 46.84 62.04 60.81 58.83 59.15 59.67 53.84 58.88 63.22 65.52 65.55 67.01 69.00 70.38 71.15 72.14 71.94 72.13 73.03 73.35 71.86 72.69 72.45 73.18 74.14 74.65 73.61 72.41 71.42 70.32 69.94 70.13 68.10 66.61
45.45 45.91 43.23 44.40 42.69 46.90 54.00 56.40 57.62 49.03 51.61 62.45 63.15 60.22 59.98 58.29 59.27 63.20 64.62 63.74 65.90 66.98 68.26 70.67 71.48 71.44 71.84 72.81 73.23 72.78 73.25 72.57 74.31 74.64 74.66 74.01 72.89 72.04 70.95 70.48 69.77 69.95 67.25 65.16
46.22 44.29 43.61 44.03 42.20 41.56 55.96 55.95 52.45 57.63 61.04 61.29 61.14 63.34 62.71 62.56 65.53 64.94 63.40 64.63 65.99 66.55 67.49 67.28 70.60 70.67 72.39 73.23 73.49 72.77 72.70 74.42 75.45 76.17 74.82 73.65 72.40 71.96 71.44 70.81 70.00 68.83 66.27 64.30
44.40 47.17 47.09 47.40 46.68 54.36 55.54 54.03 61.44 62.30 60.07 59.86 59.96 62.16 62.48 62.32 63.05 64.15 64.72 60.81 63.59 66.49 66.90 67.86 67.78 69.77 73.12 73.62 73.57 73.90 74.05 76.44 75.68 75.83 74.30 72.97 72.00 71.55 71.58 70.35 69.38 67.58 65.54 62.94
48.69 52.07 48.02 50.10 52.45 54.60 59.18 60.64 62.49 62.55 60.90 61.33 61.26 60.95 61.55 60.27 61.07 61.74 64.70 65.15 64.42 66.46 67.28 66.57 65.78 69.02 71.78 73.88 73.97 74.52 76.82 77.33 76.67 74.71 73.57 72.67 71.65 70.96 71.51 70.55 69.65 67.44 64.82 61.94
48.74 50.21 48.73 50.23 51.85 55.50 59.92 60.03 59.64 61.25 61.25 60.62 60.42 59.55 59.26 60.28 60.27 61.01 62.01 64.04 64.85 67.36 67.85 66.63 65.04 67.91 71.66 74.02 74.28 75.58 77.23 77.97 76.20 74.81 73.84 72.32 71.66 70.93 70.66 69.95 69.35 67.30 66.45 63.34
48.72 46.96 44.84 44.62 50.03 49.76 53.84 55.75 59.60 59.39 58.88 59.05 59.27 57.84 58.51 57.82 58.01 60.31 61.70 62.62 63.31 65.53 67.55 68.98 69.34 71.14 72.39 73.83 74.48 75.92 77.91 78.08 76.33 74.93 73.88 72.53 71.32 70.87 70.19 69.43 65.01 53.34 57.76 56.28
MSLP
1003.06 1003.62 1003.89 1004.38 1005.30 1006.37 1007.22 1007.52 1007.83 1007.09 1007.03 1007.97 1008.26 1008.54 1008.12 1007.67 1007.91 1007.99 1008.57 1008.71 1010.55 1010.08 1009.54 1010.35 1011.10 1011.78 1012.79 1013.49 1014.38 1015.27 1015.86 1016.41 1016.92 1017.51 1017.96 1018.38 1018.57 1018.71 1018.90 1018.84 1018.97 1018.92 1018.93 1019.01
1002.87 1002.93 1002.90 1003.59 1004.27 1004.57 1006.14 1007.18 1006.80 1006.75 1006.67 1008.06 1008.52 1008.48 1007.88 1008.00 1008.12 1008.52 1008.16 1008.78 1009.29 1010.28 1010.93 1011.13 1011.94 1012.59 1013.02 1013.53 1014.28 1015.16 1015.73 1016.27 1016.79 1017.33 1017.56 1017.92 1018.22 1018.32 1018.46 1018.66 1018.88 1018.96 1019.13 1019.15
1002.53 1002.76 1003.17 1004.42 1004.26 1004.88 1004.90 1005.67 1006.33 1006.62 1006.61 1007.95 1009.03 1010.70 1010.10 1010.39 1009.44 1009.87 1008.57 1008.45 1009.00 1009.23 1011.41 1011.37 1011.93 1012.31 1013.09 1013.49 1013.96 1014.83 1015.62 1016.14 1016.66 1017.07 1017.44 1017.76 1018.12 1018.24 1018.57 1018.80 1019.01 1019.03 1019.09 1019.09
1002.15 1002.47 1003.22 1003.48 1004.37 1004.64 1004.57 1004.68 1005.47 1006.18 1007.03 1008.74 1010.03 1011.34 1010.61 1010.35 1009.59 1009.15 1009.42 1008.51 1008.32 1008.98 1010.57 1010.91 1011.40 1012.15 1013.13 1013.26 1013.65 1014.44 1015.31 1015.99 1016.52 1016.88 1017.25 1017.58 1017.78 1018.12 1018.27 1018.51 1018.74 1018.82 1018.81 1018.82
1001.65 1002.47 1003.51 1003.77 1003.60 1003.34 1004.20 1003.76 1005.04 1006.20 1007.57 1008.83 1010.23 1010.65 1010.53 1009.87 1009.37 1008.54 1008.37 1007.98 1008.01 1008.11 1008.86 1010.34 1010.99 1011.32 1012.24 1012.77 1013.37 1014.13 1014.88 1015.66 1016.28 1016.73 1016.97 1017.30 1017.71 1017.80 1017.85 1018.26 1018.39 1018.51 1018.47 1018.55
1001.05 1000.61 1002.04 1001.96 1002.98 1003.42 1003.86 1004.58 1005.75 1006.99 1008.04 1009.55 1010.10 1010.12 1009.99 1009.50 1008.46 1007.75 1007.66 1007.57 1006.85 1006.68 1007.67 1009.85 1010.60 1010.95 1011.07 1012.30 1013.23 1013.98 1014.53 1015.15 1015.81 1016.35 1016.65 1016.92 1017.32 1017.63 1017.91 1018.16 1018.28 1018.16 1018.16 1018.16
1000.99 1000.38 1000.06 1000.35 1002.51 1003.24 1003.39 1005.10 1006.87 1008.22 1009.01 1010.13 1010.22 1009.99 1008.41 1006.91 1006.86 1006.93 1006.95 1006.49 1006.01 1006.49 1007.58 1009.72 1010.61 1009.23 1010.67 1011.66 1012.87 1013.66 1014.20 1014.80 1015.30 1015.80 1016.19 1016.54 1016.85 1017.22 1017.73 1017.81 1017.97 1018.02 1017.98 1017.91
1001.11 1000.44 999.76 999.57 1000.37 1001.92 1004.46 1006.04 1006.66 1007.71 1008.60 1009.79 1010.32 1010.04 1007.61 1005.70 1004.43 1005.42 1005.43 1005.71 1006.28 1006.04 1006.86 1007.77 1008.18 1009.01 1010.15 1011.40 1012.40 1013.17 1013.74 1014.23 1014.79 1015.31 1015.76 1016.15 1016.52 1016.93 1017.24 1017.54 1017.66 1017.68 1017.59 1017.43
1000.68 999.89 999.08 999.91 1000.18 1002.01 1003.48 1004.62 1003.45 1005.85 1007.37 1008.83 1010.32 1009.95 1006.71 1005.58 1004.86 1004.79 1004.42 1004.50 1005.60 1005.76 1006.32 1007.22 1008.19 1009.01 1010.33 1011.07 1011.67 1012.41 1013.15 1013.83 1014.40 1014.77 1015.22 1015.90 1016.29 1016.69 1017.02 1017.26 1017.46 1017.42 1017.29 1017.29
1000.03 1000.23 999.49 999.97 1000.18 1000.81 1001.96 1001.63 1003.55 1006.27 1008.69 1010.00 1011.26 1010.20 1008.39 1005.77 1004.66 1005.40 1004.09 1002.40 1003.78 1004.65 1005.18 1006.29 1007.29 1008.48 1009.63 1010.15 1010.84 1011.75 1012.60 1013.34 1014.07 1014.53 1015.16 1015.67 1016.10 1016.50 1016.85 1017.09 1017.36 1017.42 1017.39 1017.35
999.54 1000.10 999.26 1000.41 1000.78 1002.01 1001.08 1001.68 1003.26 1006.11 1007.84 1008.75 1009.02 1008.58 1005.96 1004.15 1003.95 1005.08 1004.85 1004.38 1002.20 1002.98 1004.14 1005.39 1006.39 1007.53 1008.55 1009.48 1010.47 1011.42 1012.28 1013.00 1013.74 1014.62 1015.10 1015.66 1015.97 1016.33 1016.65 1016.94 1017.36 1017.62 1017.64 1017.46
998.38 999.16 999.60 999.38 999.00 998.86 999.27 1000.99 1002.01 1003.94 1005.97 1006.28 1006.48 1006.39 1004.59 1004.64 1004.53 1003.79 1003.29 1003.47 1003.47 1001.95 1003.27 1004.65 1005.69 1006.77 1008.03 1009.00 1010.06 1010.87 1011.95 1012.65 1013.51 1014.23 1015.09 1015.45 1015.82 1016.24 1016.57 1016.96 1017.38 1017.67 1017.83 1017.80
997.40 998.48 999.30 999.11 998.79 998.80 998.92 999.09 999.92 1001.22 1002.40 1003.96 1005.03 1005.01 1003.94 1004.16 1003.93 1003.04 1002.90 1001.90 1002.48 1002.40 1003.09 1004.15 1005.20 1006.38 1007.43 1008.27 1009.35 1010.46 1011.39 1012.22 1013.00 1013.89 1014.73 1015.39 1015.80 1016.11 1016.37 1016.82 1017.31 1017.58 1017.51 1017.59
996.59 997.71 998.67 999.17 998.78 998.26 998.33 998.16 998.58 999.73 1001.36 1003.08 1003.84 1003.73 1003.62 1004.55 1003.31 1001.83 1002.52 1000.94 1001.37 1001.72 1003.13 1003.83 1004.86 1005.88 1006.66 1007.72 1008.69 1009.85 1010.85 1011.71 1012.70 1013.76 1014.45 1014.96 1015.62 1015.88 1016.10 1016.52 1016.94 1017.39 1017.78 1018.07
996.75 997.96 998.40 998.45 998.34 997.88 997.63 997.63 997.91 998.64 999.35 1001.49 1002.57 1003.41 1003.01 1003.28 1004.01 1005.19 1004.80 1002.61 1000.97 1001.85 1002.86 1003.49 1004.41 1005.48 1006.40 1007.45 1008.29 1009.20 1010.19 1011.33 1012.36 1013.29 1014.01 1014.52 1015.11 1015.58 1015.89 1016.54 1016.60 1017.25 1017.78 1018.20
997.20 998.13 998.57 998.99 998.72 998.23 997.80 997.24 997.17 997.47 997.93 999.88 1001.14 1002.53 1002.28 1001.32 1001.05 1002.84 1002.61 1003.11 1001.13 1001.69 1002.50 1003.18 1004.05 1005.01 1006.06 1006.97 1007.80 1008.80 1009.89 1010.80 1011.68 1012.68 1013.33 1013.73 1014.50 1015.08 1015.59 1016.10 1016.61 1017.30 1017.82 1018.26
998.26 998.78 999.55 999.72 999.34 998.84 998.10 997.24 996.74 996.84 996.97 998.66 1000.22 1001.16 1001.30 1001.35 1000.34 1001.01 1002.22 1003.09 1000.96 1001.13 1002.01 1002.77 1003.59 1004.52 1005.45 1006.38 1007.15 1008.44 1009.45 1010.42 1011.31 1012.22 1012.95 1013.42 1014.11 1014.91 1015.43 1016.12 1016.73 1017.35 1017.91 1018.35
998.43 999.30 999.78 1000.28 1000.06 999.29 998.03 996.75 996.31 996.44 996.50 996.70 998.72 1000.19 1000.33 999.86 999.27 1000.55 1002.90 1003.91 1002.63 1000.79 1001.25 1002.23 1003.17 1004.11 1005.00 1005.90 1006.84 1008.03 1009.06 1010.08 1010.98 1011.80 1012.45 1013.18 1013.87 1014.55 1015.27 1016.08 1016.79 1017.32 1017.79 1018.37
998.77 999.60 1000.33 1000.50 1000.29 999.27 997.74 996.77 996.44 996.18 996.33 996.14 998.15 998.98 998.96 1000.23 1001.52 1002.13 1003.57 1003.48 1001.90 1000.37 1000.39 1001.52 1002.49 1003.55 1004.70 1005.67 1006.68 1007.56 1008.79 1009.66 1010.59 1011.38 1011.94 1012.66 1013.33 1014.29 1015.13 1015.89 1016.57 1017.12 1017.75 1018.25
999.32 999.71 1001.03 1000.91 1000.41 999.15 997.76 996.21 995.59 995.60 996.70 996.48 996.34 998.21 998.96 999.53 1000.23 1001.59 1001.94 1001.08 1000.13 1000.54 1000.36 1001.19 1002.22 1003.39 1004.33 1005.41 1006.28 1007.38 1008.45 1009.23 1010.08 1010.84 1011.42 1012.08 1012.98 1013.98 1014.92 1015.60 1016.24 1016.75 1017.37 1017.96
1000.52 1000.76 1001.20 1001.01 1000.28 998.87 997.16 996.52 995.70 996.85 998.74 997.59 997.57 998.28 999.24 999.80 999.84 998.89 999.88 1000.37 999.45 1000.24 1000.32 1001.08 1002.05 1003.15 1004.04 1005.04 1005.96 1007.07 1008.09 1008.74 1009.41 1010.23 1010.88 1011.85 1012.71 1013.61 1014.46 1015.19 1015.76 1016.33 1017.09 1017.70
1001.16 1001.19 1001.18 1001.01 1000.34 999.20 997.11 997.16 997.66 998.23 998.62 998.68 998.71 998.76 999.15 999.71 1000.53 1000.95 1002.28 1000.37 1001.79 1001.57 1001.43 1001.89 1002.32 1002.79 1003.65 1004.45 1005.50 1006.62 1007.51 1008.42 1009.15 1009.97 1010.78 1011.61 1012.41 1013.28 1014.16 1014.77 1015.45 1016.07 1016.77 1017.51
1001.28 1001.00 1000.81 1000.30 999.62 998.71 997.35 997.79 997.92 998.03 998.98 999.50 999.49 999.76 999.89 1000.52 1001.10 1001.62 1001.48 1001.86 1001.67 1001.82 1002.22 1002.99 1003.48 1003.28 1003.27 1003.86 1004.54 1005.74 1006.82 1007.86 1008.89 1009.80 1010.61 1011.38 1012.23 1012.92 1013.70 1014.41 1015.06 1015.79 1016.47 1017.17
1001.30 1000.97 1000.40 1000.30 999.31 998.90 998.46 997.99 998.02 998.36 999.12 999.77 1000.08 1000.43 1000.51 1001.07 1001.48 1002.12 1002.41 1002.56 1002.79 1002.51 1001.76 1002.41 1003.17 1003.63 1003.77 1003.22 1003.93 1004.57 1005.85 1007.00 1008.24 1009.41 1010.48 1011.28 1011.82 1012.58 1013.25 1013.86 1014.32 1015.13 1015.91 1016.66
1002.65 1001.97 1001.85 1000.66 1000.64 999.52 999.35 999.39 999.07 999.20 999.55 1000.18 1000.55 1000.88 1001.19 1001.56 1002.16 1002.49 1002.95 1003.65 1003.63 1003.46 1002.52 1001.70 1001.47 1002.72 1002.91 1002.78 1003.45 1004.44 1005.39 1006.33 1007.48 1008.61 1009.79 1010.84 1011.57 1012.02 1012.70 1013.16 1013.49 1014.17 1014.79 1015.36
1003.65 1003.22 1003.23 1003.08 1002.84 1002.34 1001.73 1000.63 1000.09 1000.01 1000.33 1000.58 1000.85 1001.22 1001.35 1001.53 1001.93 1002.37 1003.23 1003.98 1004.35 1004.35 1004.27 1004.15 1002.35 1001.41 1001.99 1002.38 1002.92 1003.74 1004.65 1005.45 1006.62 1007.88 1009.06 1010.03 1010.88 1011.69 1012.20 1012.65 1013.37 1013.82 1014.23 1014.91
Wind_Speed
15 5 8 12 9 8 7 6 9 8 14 4 9 9 12 5 4 7 6 10 6 2 16 15 15 18 16 15 13 10 10 11 8 4 6 3 5 3 4 4 4 4 3 5
12 13 10 9 14 13 15 12 11 13 14 12 6 16 19 14 7 6 8 17 15 6 10 12 11 15 15 14 13 11 10 10 8 6 5 3 3 2 3 4 4 4 4 4
12 6 10 6 7 10 7 11 5 10 9 7 8 6 17 7 17 9 7 11 9 9 7 14 7 15 14 15 14 12 11 10 7 6 4 2 2 1 2 2 3 5 6 5
14 7 10 10 7 5 4 9 15 10 7 2 8 2 2 16 16 14 12 14 14 14 11 20 21 15 15 13 13 13 12 11 7 7 5 6 5 4 4 4 4 5 6 6
14 14 14 5 9 18 8 6 3 5 4 3 1 1 4 7 11 12 18 17 17 21 21 20 18 19 16 15 13 13 13 12 10 9 7 6 5 3 3 4 6 5 6 7
15 13 11 12 11 15 4 2 7 7 3 4 5 5 4 4 2 8 1 14 19 16 12 11 16 13 14 14 13 13 14 12 11 10 9 9 8 6 3 3 4 5 3 5
16 20 17 7 11 7 11 6 2 5 4 5 6 1 8 15 14 13 7 16 21 15 12 26 21 17 15 16 15 13 13 10 10 10 9 8 7 7 7 5 4 4 3 3
12 16 15 15 10 10 9 6 4 5 4 3 3 4 7 11 11 14 12 14 13 16 19 19 15 13 17 16 17 15 13 10 12 10 9 8 8 4 5 6 4 4 4 3
10 17 18 8 9 4 10 9 9 1 6 3 1 5 14 13 18 16 20 23 18 15 20 21 19 18 18 17 18 17 14 10 11 8 8 7 6 7 5 6 3 3 3 3
20 15 11 4 8 22 7 2 6 5 4 6 6 5 6 16 19 12 23 20 26 21 22 23 22 19 13 15 15 15 13 11 11 8 7 7 7 6 6 6 5 2 2 3
17 14 22 10 7 12 9 2 5 9 7 9 5 7 11 16 12 3 7 7 23 23 25 21 19 19 18 17 15 13 11 11 8 8 7 7 6 6 6 5 4 2 2 5
15 9 10 15 13 14 9 9 7 6 6 2 3 7 8 8 7 12 8 9 13 23 23 20 20 20 19 19 16 15 12 11 9 9 6 8 7 7 7 6 5 3 3 2
10 12 9 12 8 6 7 12 8 6 3 6 7 7 7 5 8 10 5 17 11 16 20 22 19 19 17 16 17 15 14 12 11 9 8 7 7 7 6 6 6 6 7 5
7 3 9 10 10 5 5 8 10 9 2 4 4 4 7 4 5 12 21 11 25 23 20 16 18 16 17 16 16 16 14 14 13 10 8 7 7 7 6 5 5 6 7 7
3 3 4 7 7 9 11 10 10 9 8 9 10 9 8 6 19 8 16 13 20 19 19 19 18 16 15 14 13 16 14 14 12 12 11 10 7 7 7 7 7 8 8 7
3 3 2 6 9 12 15 12 11 6 7 10 14 4 4 6 12 8 4 9 18 17 23 20 19 17 17 16 16 15 14 17 16 14 13 12 10 7 8 9 9 9 8 7
3 4 3 5 7 10 11 7 7 9 7 17 9 8 8 4 11 5 20 8 14 16 19 15 19 18 17 16 17 15 15 15 14 13 11 9 8 10 10 8 9 8 8 6
7 4 3 4 3 8 8 10 11 9 9 5 21 19 18 19 21 17 4 11 15 15 11 18 17 15 15 15 15 13 14 14 14 12 11 11 11 11 11 10 10 9 6 6
3 2 2 5 5 8 7 12 13 7 10 9 22 20 14 10 10 22 8 19 10 9 15 18 17 16 14 16 13 15 13 14 12 13 13 13 12 12 11 11 11 9 7 5
6 5 5 4 1 5 9 12 8 9 2 19 13 21 17 9 4 9 11 21 21 11 14 18 18 17 17 15 15 14 14 14 13 13 13 13 13 13 12 12 11 10 7 6
3 4 3 4 4 5 7 8 6 8 2 12 12 11 9 5 1 12 6 12 15 6 13 19 19 18 17 16 15 14 14 15 13 12 13 13 12 12 12 11 7 9 8 7
6 5 4 3 3 8 7 8 4 5 9 10 8 11 13 8 12 16 6 11 9 8 8 6 17 16 15 17 16 14 15 12 11 13 14 13 13 11 10 12 8 9 9 8
7 6 5 9 7 6 12 4 5 12 10 8 9 9 10 10 10 12 13 13 8 6 7 8 9 11 15 18 19 17 14 15 14 13 14 13 13 11 11 12 11 9 8 8
6 7 2 3 8 3 8 11 8 12 10 9 9 9 9 11 9 10 12 8 7 9 4 9 9 6 12 18 18 18 18 18 16 16 14 12 13 12 12 10 10 10 9 8
3 6 8 5 14 10 10 7 7 11 11 9 9 9 9 9 9 8 8 9 6 4 8 8 9 7 19 17 17 15 17 18 16 15 14 13 10 12 12 11 11 11 10 11
5 4 3 2 6 2 7 9 6 9 9 8 8 8 8 9 8 8 6 9 5 2 2 6 18 21 20 17 18 17 18 19 18 15 12 11 10 10 10 10 6 4 3 13
Wind_Direction
209 219 231 229 144 190 252 146 224 256 237 236 220 238 245 194 184 167 203 87 17 240 156 143 148 142 146 150 153 161 159 152 151 157 175 171 188 184 173 172 212 234 285 319
252 230 237 158 183 193 161 191 200 262 227 200 317 243 216 207 231 210 161 146 191 126 183 128 138 141 151 155 155 159 160 154 159 169 176 155 164 186 166 167 194 215 236 271
234 259 109 113 351 299 198 194 256 235 150 97 199 292 287 8 327 298 182 161 192 169 204 144 128 157 153 156 160 157 161 167 164 164 148 142 135 63 109 178 188 216 221 226
246 160 93 62 296 283 210 179 214 236 27 75 173 203 329 203 232 265 260 190 186 189 180 162 179 165 168 165 154 157 162 170 172 176 167 173 183 178 193 183 189 205 208 218
242 137 140 164 203 255 254 160 156 80 68 91 28 324 188 199 242 245 248 226 198 201 173 172 170 167 163 157 164 160 162 172 177 186 186 182 179 180 169 179 181 193 208 215
250 245 163 200 255 223 143 49 42 33 39 53 205 141 269 199 273 300 23 249 206 194 184 101 143 175 151 154 159 164 168 176 174 179 184 184 183 190 162 186 186 197 194 201
264 268 265 201 172 144 166 112 294 352 23 221 211 191 237 271 232 229 282 297 190 185 144 150 184 158 156 160 164 168 163 171 169 178 183 183 189 178 190 208 195 186 200 208
237 269 258 255 158 158 131 213 199 245 194 209 251 325 274 280 311 283 283 274 220 169 151 163 168 163 158 165 167 167 168 165 172 175 181 184 187 184 191 198 209 210 185 171
243 255 253 5 11 94 214 221 180 56 322 74 250 301 294 253 270 281 296 230 215 180 158 164 171 161 170 169 164 165 168 166 167 175 155 172 170 178 186 195 193 160 155 154
252 274 276 311 309 313 241 224 65 18 90 5 332 272 253 298 308 355 343 174 184 173 168 162 166 167 166 164 162 158 158 153 160 161 150 165 168 174 174 149 168 161 228 231
220 242 277 148 159 202 241 101 82 105 162 152 201 241 232 236 269 46 230 287 170 152 157 164 163 166 172 156 160 157 158 155 161 139 164 156 165 155 145 134 148 205 270 240
208 204 247 256 238 196 193 205 148 132 254 245 167 245 261 263 298 295 299 268 231 155 156 163 164 164 166 160 160 160 156 152 149 155 155 162 165 144 147 162 171 115 54 292
207 216 238 283 289 243 203 230 184 203 151 191 161 244 207 285 271 273 281 307 173 140 148 155 153 161 163 158 156 158 152 155 152 155 155 127 134 153 164 161 155 133 177 161
103 185 187 227 228 240 256 201 203 187 164 138 199 243 285 130 348 344 331 215 155 154 159 157 153 164 159 162 160 161 154 156 152 156 160 153 156 166 174 178 170 147 129 122
105 200 274 295 295 281 274 279 269 196 203 152 196 193 246 153 145 234 266 277 141 148 161 161 162 164 157 157 154 163 154 151 149 161 167 173 175 171 184 178 137 117 116 123
333 272 336 306 314 308 298 297 297 283 216 80 141 179 221 354 326 149 310 291 147 149 167 171 163 158 160 158 159 159 148 158 161 164 171 167 170 157 144 134 120 124 129 138
197 176 170 257 281 297 297 277 294 298 296 140 156 186 142 71 322 275 187 244 157 159 157 158 160 162 160 159 159 162 159 156 162 160 168 168 162 145 141 133 128 133 147 148
181 195 153 216 275 259 256 294 282 277 268 288 130 170 180 172 198 244 38 299 287 161 152 154 160 157 157 155 153 142 157 160 163 167 170 162 155 145 141 140 144 150 148 156
1 84 259 170 207 247 279 265 259 251 272 260 158 181 172 173 189 238 165 272 244 192 156 159 158 155 149 155 151 147 155 159 154 161 160 155 151 148 148 148 153 156 153 160
309 328 116 318 256 233 236 256 279 291 118 42 54 174 169 189 131 170 188 195 205 230 156 156 157 154 153 158 155 144 159 162 167 163 158 154 150 151 153 154 162 163 156 152
249 285 249 288 242 288 282 337 29 358 176 61 50 117 121 103 185 29 29 253 203 203 156 151 155 158 162 158 159 153 157 172 162 156 150 148 151 149 151 154 162 149 148 146
215 184 226 257 293 257 288 20 64 178 63 70 41 71 79 86 78 100 294 71 111 58 56 122 159 163 160 159 159 163 169 159 150 148 153 153 150 151 155 156 156 152 153 148
260 209 211 187 216 265 294 121 95 98 98 65 56 61 87 72 51 65 61 59 38 106 119 80 31 175 165 167 169 167 170 154 155 153 158 154 151 155 159 162 164 160 154 158
299 3 292 33 250 82 25 54 79 101 91 81 69 58 66 81 61 64 64 52 72 12 345 159 150 202 203 176 178 173 162 159 152 158 161 161 160 162 165 170 169 172 169 170
296 0 319 273 24 347 62 74 83 95 94 86 76 71 66 77 86 84 84 83 66 23 330 332 303 245 202 186 175 169 165 160 158 161 162 166 170 168 168 178 178 184 188 182
335 13 36 301 334 304 340 354 359 92 84 77 87 73 52 51 55 63 99 127 120 120 255 261 265 230 191 180 172 170 170 168 161 163 166 169 167 175 176 178 168 57 196 186